{"data":{"norad_id":49300,"intl_designator":"2021-090X","name":"ONEWEB-0374","alt_names":[],"object_type":"PAYLOAD","status":"ACTIVE","operator":null,"country":"UK","launch_date":"2021-10-14","launch_site_code":"VOSTO","launch_vehicle":null,"mission":null,"orbit_class":"UNKNOWN","rcs_meters":null,"size_class":null,"mass_kg":null,"dimensions":null,"purposes":["comms"],"wikipedia_slug":null,"has_3d_model":false,"image_url":null,"decayed_at":null,"tle_current":{"epoch":"2026-05-25T03:08:51.840384Z","epoch_age_seconds":59867,"freshness":"FRESH","line1":"1 49300U 21090X   26145.13115556 -.00000233  00000+0 -66368-3 0  9994","line2":"2 49300  87.8942 294.2951 0002441  95.1807 264.9601 13.14501247224531","mean_motion":13.14501247,"eccentricity":0.0002441,"inclination_deg":87.8942,"raan_deg":294.2951,"arg_perigee_deg":95.1807,"mean_anomaly_deg":264.9601,"bstar":-0.00066368,"rev_number":22453,"period_min":109.54725248732,"perigee_km":1203.9450898041,"apogee_km":1207.6475660548,"semimajor_km":7583.9333279294,"source":"CELESTRAK","updated_at":"2026-05-25T13:38:22.523845Z"}}}